{"data":{"norad_id":41330,"intl_designator":"2016-008A","name":"COSMOS 2514 (751)","alt_names":[],"object_type":"PAYLOAD","status":"ACTIVE","operator":null,"country":"CIS","launch_date":"2016-02-07","launch_site_code":"PLMSC","launch_vehicle":null,"mission":null,"orbit_class":"UNKNOWN","rcs_meters":11.2901,"size_class":null,"mass_kg":null,"dimensions":null,"purposes":["nav"],"wikipedia_slug":null,"has_3d_model":false,"image_url":null,"decayed_at":null,"tle_current":{"epoch":"2026-05-24T19:43:56.017632Z","epoch_age_seconds":89739,"freshness":"FRESH","line1":"1 41330U 16008A   26144.82217613 -.00000049  00000+0  00000+0 0  9995","line2":"2 41330  65.0361 313.8080 0010413 196.8180 163.1436  2.13102641 80124","mean_motion":2.13102641,"eccentricity":0.0010413,"inclination_deg":65.0361,"raan_deg":313.808,"arg_perigee_deg":196.818,"mean_anomaly_deg":163.1436,"bstar":0,"rev_number":8012,"period_min":675.73071513459,"perigee_km":19103.274823858,"apogee_km":19156.397729004,"semimajor_km":25507.973276431,"source":"CELESTRAK","updated_at":"2026-05-25T13:38:23.894680Z"}}}